STARLINK-11502 [DTC]

Last updated on Fri Jan 31 2025 00:02:04 GMT+0000 (Coordinated Universal Time)

1 62474U 24254N 25030.58334491 -.01142675 00000+0 -68768-2 0 9991 2 62474 42.9931 133.9886 0001605 277.2528 291.1085 15.79322083 6031
UTC large
Height (km)
Speed (km/s)
/
Latitude / Longitude
Inclination (degrees)
Orbital Period (minutes)
Azimuth
Elevation
Range (km)
Doppler Factor

Next 0 passes for location: London (51.5072 / 0.1276)

Sorry there are no passes over London.